contact:dominique.lefevre@mio.osupytheas.fr, maurice.libes@osupytheas.fr, didier.mallarino@osupytheas.fr
Project:EMSO http://www.emso-fr.org/EMSO-France
Depth: 2436.0 m
Title:EMSO Ligure Ouest : Data MII capteur CSTAR
DateTime,Latitude,Longitude,Instrument_Serial,Reference_Counts,Signal_Counts,Corrected_Signal_raw_counts,Calculated_Beam_c_inverse_meters,Internal_thermistor_counts
DateTime,Latitude,Longitude,Instrument_Serial,Reference_Counts,Signal_Counts,Corrected_Signal_raw_counts,Calculated_Beam_c_inverse_meters,Internal_thermistor_counts
2022-11-28T00:00:17,42.805,6.029,CST-1368DR,4478,5126,12173,0.996,551
2022-11-28T00:03:18,42.805,6.029,CST-1368DR,4478,5125,12170,0.997,551
2022-11-28T00:06:20,42.805,6.029,CST-1368DR,4478,5125,12171,0.997,551
2022-11-28T00:09:21,42.805,6.029,CST-1368DR,4478,5124,12168,0.998,551
2022-11-28T00:12:23,42.805,6.029,CST-1368DR,4478,5127,12176,0.995,551
2022-11-28T00:15:25,42.805,6.029,CST-1368DR,4478,5127,12175,0.996,551
2022-11-28T00:18:26,42.805,6.029,CST-1368DR,4478,5125,12172,0.997,551
2022-11-28T00:21:28,42.805,6.029,CST-1368DR,4478,5124,12170,0.997,551
2022-11-28T00:24:29,42.805,6.029,CST-1368DR,4478,5122,12163,01.000,551
2022-11-28T00:27:31,42.805,6.029,CST-1368DR,4478,5125,12171,0.997,551
2022-11-28T00:30:32,42.805,6.029,CST-1368DR,4478,5126,12173,0.996,551
2022-11-28T00:33:34,42.805,6.029,CST-1368DR,4478,5126,12173,0.996,551
2022-11-28T00:36:36,42.805,6.029,CST-1368DR,4478,5125,12172,0.997,551
2022-11-28T00:39:37,42.805,6.029,CST-1368DR,4478,5123,12167,0.998,551
2022-11-28T00:42:39,42.805,6.029,CST-1368DR,4478,5123,12166,0.999,551
2022-11-28T00:45:40,42.805,6.029,CST-1368DR,4478,5125,12171,0.997,551
2022-11-28T00:48:42,42.805,6.029,CST-1368DR,4478,5124,12168,0.998,551
2022-11-28T00:51:43,42.805,6.029,CST-1368DR,4478,5126,12173,0.996,551
2022-11-28T00:54:45,42.805,6.029,CST-1368DR,4478,5123,12166,0.999,551
2022-11-28T00:57:47,42.805,6.029,CST-1368DR,4478,5124,12170,0.997,551
2022-11-28T01:00:48,42.805,6.029,CST-1368DR,4478,5123,12167,0.998,551
2022-11-28T01:03:50,42.805,6.029,CST-1368DR,4478,5122,12164,0.999,551
2022-11-28T01:06:51,42.805,6.029,CST-1368DR,4478,5122,12165,0.999,551
2022-11-28T01:09:53,42.805,6.029,CST-1368DR,4478,5123,12166,0.999,551
2022-11-28T01:12:55,42.805,6.029,CST-1368DR,4478,5123,12167,0.998,551
2022-11-28T01:15:56,42.805,6.029,CST-1368DR,4478,5122,12165,0.999,551
2022-11-28T01:18:58,42.805,6.029,CST-1368DR,4478,5124,12168,0.998,551
2022-11-28T01:21:59,42.805,6.029,CST-1368DR,4478,5122,12164,0.999,551
2022-11-28T01:25:01,42.805,6.029,CST-1368DR,4478,5123,12167,0.998,551
2022-11-28T01:28:02,42.805,6.029,CST-1368DR,4478,5123,12167,0.998,551
2022-11-28T01:31:04,42.805,6.029,CST-1368DR,4478,5121,12162,01.000,551
2022-11-28T01:34:06,42.805,6.029,CST-1368DR,4478,5122,12163,01.000,551
2022-11-28T01:37:07,42.805,6.029,CST-1368DR,4478,5121,12161,01.000,551
2022-11-28T01:40:09,42.805,6.029,CST-1368DR,4478,5123,12167,0.998,551
2022-11-28T01:43:10,42.805,6.029,CST-1368DR,4478,5123,12166,0.999,551
2022-11-28T01:46:12,42.805,6.029,CST-1368DR,4478,5123,12166,0.999,551
2022-11-28T01:49:13,42.805,6.029,CST-1368DR,4478,5121,12162,01.000,551
2022-11-28T01:52:15,42.805,6.029,CST-1368DR,4478,5122,12163,01.000,551
2022-11-28T01:55:17,42.805,6.029,CST-1368DR,4478,5122,12163,01.000,551
2022-11-28T01:58:18,42.805,6.029,CST-1368DR,4478,5122,12165,0.999,551
2022-11-28T02:01:20,42.805,6.029,CST-1368DR,4478,5122,12163,01.000,551
2022-11-28T02:04:21,42.805,6.029,CST-1368DR,4478,5120,12159,01.001,551
2022-11-28T02:07:23,42.805,6.029,CST-1368DR,4477,5121,12165,0.999,551
2022-11-28T02:10:25,42.805,6.029,CST-1368DR,4478,5122,12163,01.000,551
2022-11-28T02:13:26,42.805,6.029,CST-1368DR,4477,5122,12166,0.999,551
2022-11-28T02:16:28,42.805,6.029,CST-1368DR,4478,5120,12160,01.001,550
2022-11-28T02:19:29,42.805,6.029,CST-1368DR,4478,5120,12159,01.001,551
2022-11-28T02:22:31,42.805,6.029,CST-1368DR,4478,5124,12168,0.998,551
2022-11-28T02:25:32,42.805,6.029,CST-1368DR,4478,5122,12164,0.999,551
2022-11-28T02:28:34,42.805,6.029,CST-1368DR,4478,5122,12164,0.999,551
2022-11-28T02:31:36,42.805,6.029,CST-1368DR,4478,5122,12164,0.999,551
2022-11-28T02:34:37,42.805,6.029,CST-1368DR,4478,5119,12157,01.002,550
2022-11-28T02:37:39,42.805,6.029,CST-1368DR,4478,5122,12164,0.999,551
2022-11-28T02:40:40,42.805,6.029,CST-1368DR,4478,5123,12166,0.999,551
2022-11-28T02:43:42,42.805,6.029,CST-1368DR,4478,5121,12162,01.000,551
2022-11-28T02:46:43,42.805,6.029,CST-1368DR,4478,5123,12166,0.999,551
2022-11-28T02:49:45,42.805,6.029,CST-1368DR,4478,5122,12164,0.999,551
2022-11-28T02:52:47,42.805,6.029,CST-1368DR,4478,5121,12162,01.000,551
2022-11-28T02:55:48,42.805,6.029,CST-1368DR,4478,5120,12159,01.001,551
2022-11-28T02:58:50,42.805,6.029,CST-1368DR,4478,5122,12163,01.000,551
2022-11-28T03:01:51,42.805,6.029,CST-1368DR,4478,5122,12163,01.000,551
2022-11-28T03:04:53,42.805,6.029,CST-1368DR,4478,5122,12164,0.999,551
2022-11-28T03:07:55,42.805,6.029,CST-1368DR,4478,5121,12162,01.000,551
2022-11-28T03:10:56,42.805,6.029,CST-1368DR,4478,5121,12161,01.000,551
2022-11-28T03:13:58,42.805,6.029,CST-1368DR,4478,5121,12161,01.000,551
2022-11-28T03:16:59,42.805,6.029,CST-1368DR,4478,5123,12167,0.998,551
2022-11-28T03:20:01,42.805,6.029,CST-1368DR,4478,5123,12166,0.999,551
2022-11-28T03:23:02,42.805,6.029,CST-1368DR,4478,5121,12162,01.000,551
2022-11-28T03:26:04,42.805,6.029,CST-1368DR,4478,5121,12162,01.000,551
2022-11-28T03:29:06,42.805,6.029,CST-1368DR,4478,5121,12162,01.000,551
2022-11-28T03:32:07,42.805,6.029,CST-1368DR,4478,5122,12165,0.999,551
2022-11-28T03:35:09,42.805,6.029,CST-1368DR,4478,5123,12167,0.998,551
2022-11-28T03:38:10,42.805,6.029,CST-1368DR,4478,5122,12165,0.999,551
2022-11-28T03:41:12,42.805,6.029,CST-1368DR,4478,5121,12162,01.000,551
2022-11-28T03:44:14,42.805,6.029,CST-1368DR,4478,5122,12163,01.000,551
2022-11-28T03:47:15,42.805,6.029,CST-1368DR,4478,5122,12164,0.999,551
2022-11-28T03:50:17,42.805,6.029,CST-1368DR,4478,5122,12164,0.999,551
2022-11-28T03:53:18,42.805,6.029,CST-1368DR,4478,5123,12167,0.998,551
2022-11-28T03:56:20,42.805,6.029,CST-1368DR,4478,5122,12163,01.000,551
2022-11-28T03:59:21,42.805,6.029,CST-1368DR,4478,5122,12165,0.999,551
2022-11-28T04:02:23,42.805,6.029,CST-1368DR,4478,5124,12168,0.998,551
2022-11-28T04:05:25,42.805,6.029,CST-1368DR,4478,5124,12168,0.998,551
2022-11-28T04:08:26,42.805,6.029,CST-1368DR,4478,5123,12166,0.999,551
2022-11-28T04:11:28,42.805,6.029,CST-1368DR,4478,5121,12162,01.000,551
2022-11-28T04:14:29,42.805,6.029,CST-1368DR,4478,5121,12162,01.000,551
2022-11-28T04:17:31,42.805,6.029,CST-1368DR,4478,5121,12161,01.000,551
2022-11-28T04:20:32,42.805,6.029,CST-1368DR,4478,5122,12164,0.999,551
2022-11-28T04:23:34,42.805,6.029,CST-1368DR,4478,5121,12162,01.000,551
2022-11-28T04:26:36,42.805,6.029,CST-1368DR,4478,5121,12161,01.000,551
2022-11-28T04:29:37,42.805,6.029,CST-1368DR,4478,5120,12159,01.001,551
2022-11-28T04:32:39,42.805,6.029,CST-1368DR,4478,5121,12161,01.000,551
2022-11-28T04:35:40,42.805,6.029,CST-1368DR,4478,5120,12159,01.001,551
2022-11-28T04:38:42,42.805,6.029,CST-1368DR,4478,5121,12161,01.000,551
2022-11-28T04:41:44,42.805,6.029,CST-1368DR,4478,5119,12157,01.002,551
2022-11-28T04:44:45,42.805,6.029,CST-1368DR,4478,5122,12163,01.000,551
2022-11-28T04:47:47,42.805,6.029,CST-1368DR,4478,5120,12159,01.001,551
2022-11-28T04:50:48,42.805,6.029,CST-1368DR,4478,5118,12154,01.003,551
2022-11-28T04:53:50,42.805,6.029,CST-1368DR,4478,5121,12161,01.000,551
2022-11-28T04:56:51,42.805,6.029,CST-1368DR,4478,5120,12159,01.001,551
2022-11-28T04:59:53,42.805,6.029,CST-1368DR,4478,5120,12159,01.001,551
2022-11-28T05:02:55,42.805,6.029,CST-1368DR,4478,5123,12166,0.999,551
2022-11-28T05:05:56,42.805,6.029,CST-1368DR,4478,5120,12160,01.001,551
2022-11-28T05:08:58,42.805,6.029,CST-1368DR,4478,5121,12161,01.000,551
2022-11-28T05:11:59,42.805,6.029,CST-1368DR,4478,5119,12157,01.002,551
2022-11-28T05:15:01,42.805,6.029,CST-1368DR,4478,5120,12160,01.001,551
2022-11-28T05:18:02,42.805,6.029,CST-1368DR,4478,5121,12161,01.000,551
2022-11-28T05:21:04,42.805,6.029,CST-1368DR,4478,5118,12154,01.003,551
2022-11-28T05:24:06,42.805,6.029,CST-1368DR,4478,5117,12151,01.004,551
2022-11-28T05:27:07,42.805,6.029,CST-1368DR,4478,5122,12164,0.999,551
2022-11-28T05:30:09,42.805,6.029,CST-1368DR,4478,5120,12158,01.001,551
2022-11-28T05:33:10,42.805,6.029,CST-1368DR,4478,5118,12154,01.003,551
2022-11-28T05:36:12,42.805,6.029,CST-1368DR,4478,5121,12161,01.000,551
2022-11-28T05:39:14,42.805,6.029,CST-1368DR,4478,5122,12164,0.999,551
2022-11-28T05:42:15,42.805,6.029,CST-1368DR,4478,5121,12162,01.000,551
2022-11-28T05:45:17,42.805,6.029,CST-1368DR,4478,5122,12163,01.000,550
2022-11-28T05:48:18,42.805,6.029,CST-1368DR,4478,5118,12155,01.002,551
2022-11-28T05:51:20,42.805,6.029,CST-1368DR,4478,5121,12162,01.000,551
2022-11-28T05:54:21,42.805,6.029,CST-1368DR,4478,5123,12166,0.999,551
2022-11-28T05:57:23,42.805,6.029,CST-1368DR,4478,5121,12161,01.000,551
2022-11-28T06:00:25,42.805,6.029,CST-1368DR,4478,5121,12162,01.000,551
2022-11-28T06:03:26,42.805,6.029,CST-1368DR,4478,5120,12158,01.001,551
2022-11-28T06:06:28,42.805,6.029,CST-1368DR,4478,5122,12163,01.000,551
2022-11-28T06:09:29,42.805,6.029,CST-1368DR,4478,5121,12162,01.000,551
2022-11-28T06:12:31,42.805,6.029,CST-1368DR,4478,5122,12164,0.999,551
2022-11-28T06:15:33,42.805,6.029,CST-1368DR,4478,5120,12160,01.001,551
2022-11-28T06:18:34,42.805,6.029,CST-1368DR,4478,5121,12162,01.000,551
2022-11-28T06:21:36,42.805,6.029,CST-1368DR,4478,5121,12161,01.000,551
2022-11-28T06:24:37,42.805,6.029,CST-1368DR,4478,5120,12159,01.001,551
2022-11-28T06:27:39,42.805,6.029,CST-1368DR,4478,5122,12163,01.000,551
2022-11-28T06:30:40,42.805,6.029,CST-1368DR,4478,5120,12160,01.001,551
2022-11-28T06:33:42,42.805,6.029,CST-1368DR,4478,5119,12157,01.002,551
2022-11-28T06:36:44,42.805,6.029,CST-1368DR,4478,5122,12163,01.000,551
2022-11-28T06:39:45,42.805,6.029,CST-1368DR,4478,5120,12159,01.001,551
2022-11-28T06:42:47,42.805,6.029,CST-1368DR,4478,5121,12161,01.000,551
2022-11-28T06:45:48,42.805,6.029,CST-1368DR,4478,5121,12161,01.000,551
2022-11-28T06:48:50,42.805,6.029,CST-1368DR,4478,5120,12158,01.001,551
2022-11-28T06:51:51,42.805,6.029,CST-1368DR,4478,5118,12155,01.002,551
2022-11-28T06:54:53,42.805,6.029,CST-1368DR,4478,5119,12157,01.002,551
2022-11-28T06:57:55,42.805,6.029,CST-1368DR,4478,5120,12159,01.001,551
2022-11-28T07:00:56,42.805,6.029,CST-1368DR,4478,5119,12157,01.002,551
2022-11-28T07:03:58,42.805,6.029,CST-1368DR,4478,5120,12159,01.001,551
2022-11-28T07:06:59,42.805,6.029,CST-1368DR,4478,5118,12154,01.003,551
2022-11-28T07:10:01,42.805,6.029,CST-1368DR,4478,5118,12155,01.002,551
2022-11-28T07:13:02,42.805,6.029,CST-1368DR,4478,5119,12157,01.002,551
2022-11-28T07:16:04,42.805,6.029,CST-1368DR,4478,5118,12154,01.003,551
2022-11-28T07:19:06,42.805,6.029,CST-1368DR,4478,5120,12159,01.001,551
2022-11-28T07:22:07,42.805,6.029,CST-1368DR,4478,5119,12156,01.002,551
2022-11-28T07:25:09,42.805,6.029,CST-1368DR,4478,5119,12157,01.002,551
2022-11-28T07:28:10,42.805,6.029,CST-1368DR,4478,5118,12154,01.003,551
2022-11-28T07:31:12,42.805,6.029,CST-1368DR,4478,5118,12155,01.002,551
2022-11-28T07:34:14,42.805,6.029,CST-1368DR,4478,5118,12155,01.002,551
2022-11-28T07:37:15,42.805,6.029,CST-1368DR,4478,5118,12155,01.002,551
2022-11-28T07:40:17,42.805,6.029,CST-1368DR,4478,5118,12155,01.002,551
2022-11-28T07:43:18,42.805,6.029,CST-1368DR,4478,5117,12153,01.003,551
2022-11-28T07:46:20,42.805,6.029,CST-1368DR,4478,5118,12154,01.003,551
2022-11-28T07:49:21,42.805,6.029,CST-1368DR,4478,5118,12154,01.003,551
2022-11-28T07:52:23,42.805,6.029,CST-1368DR,4478,5117,12152,01.003,551
2022-11-28T07:55:25,42.805,6.029,CST-1368DR,4478,5116,12151,01.004,551
2022-11-28T07:58:26,42.805,6.029,CST-1368DR,4478,5117,12152,01.003,551
2022-11-28T08:01:28,42.805,6.029,CST-1368DR,4478,5116,12150,01.004,551
2022-11-28T08:04:29,42.805,6.029,CST-1368DR,4478,5116,12151,01.004,551
2022-11-28T08:07:31,42.805,6.029,CST-1368DR,4478,5115,12148,01.005,551
2022-11-28T08:10:32,42.805,6.029,CST-1368DR,4478,5115,12147,01.005,551
2022-11-28T08:13:34,42.805,6.029,CST-1368DR,4478,5116,12150,01.004,551
2022-11-28T08:16:36,42.805,6.029,CST-1368DR,4478,5115,12148,01.005,551
2022-11-28T08:19:37,42.805,6.029,CST-1368DR,4478,5116,12150,01.004,551
2022-11-28T08:22:39,42.805,6.029,CST-1368DR,4478,5115,12148,01.005,551
2022-11-28T08:25:40,42.805,6.029,CST-1368DR,4478,5115,12147,01.005,551
2022-11-28T08:28:42,42.805,6.029,CST-1368DR,4478,5115,12148,01.005,551
2022-11-28T08:31:44,42.805,6.029,CST-1368DR,4478,5116,12149,01.004,551
2022-11-28T08:34:45,42.805,6.029,CST-1368DR,4478,5115,12147,01.005,551
2022-11-28T08:37:47,42.805,6.029,CST-1368DR,4478,5115,12146,01.005,551
2022-11-28T08:40:48,42.805,6.029,CST-1368DR,4478,5114,12146,01.005,551
2022-11-28T08:43:50,42.805,6.029,CST-1368DR,4478,5115,12147,01.005,551
2022-11-28T08:46:51,42.805,6.029,CST-1368DR,4478,5115,12148,01.005,551
2022-11-28T08:49:53,42.805,6.029,CST-1368DR,4478,5116,12150,01.004,551
2022-11-28T08:52:55,42.805,6.029,CST-1368DR,4478,5114,12146,01.005,551
2022-11-28T08:55:56,42.805,6.029,CST-1368DR,4478,5115,12146,01.005,551
2022-11-28T08:58:58,42.805,6.029,CST-1368DR,4478,5115,12146,01.005,551
2022-11-28T09:01:59,42.805,6.029,CST-1368DR,4478,5116,12149,01.004,551
2022-11-28T09:05:01,42.805,6.029,CST-1368DR,4478,5116,12149,01.004,551
2022-11-28T09:08:02,42.805,6.029,CST-1368DR,4478,5115,12147,01.005,551
2022-11-28T09:11:04,42.805,6.029,CST-1368DR,4478,5115,12148,01.005,551
2022-11-28T09:14:06,42.805,6.029,CST-1368DR,4478,5114,12145,01.006,551
2022-11-28T09:17:07,42.805,6.029,CST-1368DR,4478,5116,12150,01.004,551
2022-11-28T09:20:09,42.805,6.029,CST-1368DR,4478,5116,12149,01.004,551
2022-11-28T09:23:10,42.805,6.029,CST-1368DR,4478,5116,12150,01.004,551
2022-11-28T09:26:12,42.805,6.029,CST-1368DR,4478,5115,12147,01.005,551
2022-11-28T09:29:14,42.805,6.029,CST-1368DR,4478,5116,12151,01.004,551
2022-11-28T09:32:15,42.805,6.029,CST-1368DR,4478,5115,12148,01.005,551
2022-11-28T09:35:17,42.805,6.029,CST-1368DR,4478,5116,12149,01.004,551
2022-11-28T09:38:18,42.805,6.029,CST-1368DR,4478,5117,12153,01.003,551
2022-11-28T09:41:20,42.805,6.029,CST-1368DR,4478,5114,12145,01.006,551
2022-11-28T09:44:21,42.805,6.029,CST-1368DR,4478,5114,12145,01.006,551
2022-11-28T09:47:23,42.805,6.029,CST-1368DR,4478,5114,12146,01.005,551
2022-11-28T09:50:25,42.805,6.029,CST-1368DR,4478,5114,12146,01.005,551
2022-11-28T09:53:26,42.805,6.029,CST-1368DR,4478,5114,12146,01.005,551
2022-11-28T09:56:28,42.805,6.029,CST-1368DR,4478,5114,12145,01.006,551
2022-11-28T09:59:29,42.805,6.029,CST-1368DR,4478,5114,12144,01.006,551
2022-11-28T10:02:31,42.805,6.029,CST-1368DR,4478,5115,12147,01.005,551
2022-11-28T10:05:33,42.805,6.029,CST-1368DR,4477,5115,12150,01.004,551
2022-11-28T10:08:34,42.805,6.029,CST-1368DR,4477,5116,12153,01.003,551
2022-11-28T10:11:36,42.805,6.029,CST-1368DR,4477,5113,12146,01.005,551
2022-11-28T10:14:37,42.805,6.029,CST-1368DR,4478,5114,12145,01.006,551
2022-11-28T10:17:39,42.805,6.029,CST-1368DR,4478,5115,12148,01.005,551
2022-11-28T10:20:40,42.805,6.029,CST-1368DR,4478,5119,12156,01.002,551
2022-11-28T10:23:42,42.805,6.029,CST-1368DR,4478,5114,12146,01.005,551
2022-11-28T10:26:44,42.805,6.029,CST-1368DR,4478,5115,12146,01.005,551
2022-11-28T10:29:45,42.805,6.029,CST-1368DR,4478,5117,12153,01.003,551
2022-11-28T10:32:47,42.805,6.029,CST-1368DR,4478,5115,12148,01.005,551
2022-11-28T10:35:48,42.805,6.029,CST-1368DR,4477,5116,12153,01.003,551
2022-11-28T10:38:50,42.805,6.029,CST-1368DR,4477,5116,12153,01.003,551
2022-11-28T10:41:51,42.805,6.029,CST-1368DR,4478,5115,12147,01.005,551
2022-11-28T10:44:53,42.805,6.029,CST-1368DR,4478,5120,12158,01.001,551
2022-11-28T10:47:55,42.805,6.029,CST-1368DR,4478,5117,12152,01.003,551
2022-11-28T10:50:56,42.805,6.029,CST-1368DR,4478,5114,12145,01.006,551
2022-11-28T10:53:58,42.805,6.029,CST-1368DR,4477,5117,12155,01.002,551
2022-11-28T10:56:59,42.805,6.029,CST-1368DR,4477,5119,12160,01.001,551
2022-11-28T11:00:01,42.805,6.029,CST-1368DR,4478,5118,12155,01.002,551
2022-11-28T11:03:03,42.805,6.029,CST-1368DR,4478,5116,12150,01.004,551
2022-11-28T11:06:04,42.805,6.029,CST-1368DR,4477,5115,12149,01.004,551
2022-11-28T11:09:06,42.805,6.029,CST-1368DR,4477,5116,12153,01.003,551
2022-11-28T11:12:07,42.805,6.029,CST-1368DR,4477,5115,12149,01.004,551
2022-11-28T11:15:09,42.805,6.029,CST-1368DR,4478,5115,12148,01.005,551
2022-11-28T11:18:10,42.805,6.029,CST-1368DR,4478,5119,12156,01.002,551
2022-11-28T11:21:12,42.805,6.029,CST-1368DR,4477,5118,12158,01.001,551
2022-11-28T11:24:14,42.805,6.029,CST-1368DR,4477,5117,12155,01.002,551
2022-11-28T11:27:15,42.805,6.029,CST-1368DR,4478,5114,12145,01.006,551
2022-11-28T11:30:17,42.805,6.029,CST-1368DR,4477,5118,12156,01.002,551
2022-11-28T11:33:18,42.805,6.029,CST-1368DR,4477,5113,12146,01.005,551
2022-11-28T11:36:20,42.805,6.029,CST-1368DR,4477,5113,12146,01.005,551
2022-11-28T11:39:21,42.805,6.029,CST-1368DR,4477,5115,12151,01.004,551
2022-11-28T11:42:23,42.805,6.029,CST-1368DR,4477,5118,12158,01.001,551
2022-11-28T11:45:25,42.805,6.029,CST-1368DR,4477,5117,12154,01.003,551
2022-11-28T11:48:26,42.805,6.029,CST-1368DR,4477,5119,12159,01.001,551
2022-11-28T11:51:28,42.805,6.029,CST-1368DR,4477,5119,12159,01.001,551
2022-11-28T11:54:29,42.805,6.029,CST-1368DR,4477,5118,12158,01.001,551
2022-11-28T11:57:31,42.805,6.029,CST-1368DR,4477,5120,12161,01.000,551
2022-11-28T12:00:33,42.805,6.029,CST-1368DR,4477,5118,12158,01.001,551
2022-11-28T12:03:34,42.805,6.029,CST-1368DR,4477,5117,12154,01.003,551
2022-11-28T12:06:36,42.805,6.029,CST-1368DR,4478,5117,12152,01.003,551
2022-11-28T12:09:37,42.805,6.029,CST-1368DR,4477,5119,12160,01.001,551
2022-11-28T12:12:39,42.805,6.029,CST-1368DR,4477,5119,12160,01.001,551
2022-11-28T12:15:40,42.805,6.029,CST-1368DR,4477,5119,12159,01.001,551
2022-11-28T12:18:42,42.805,6.029,CST-1368DR,4477,5117,12155,01.002,551
2022-11-28T12:21:44,42.805,6.029,CST-1368DR,4477,5114,12147,01.005,551
2022-11-28T12:24:45,42.805,6.029,CST-1368DR,4477,5118,12156,01.002,551
2022-11-28T12:27:47,42.805,6.029,CST-1368DR,4477,5117,12154,01.003,551
2022-11-28T12:30:48,42.805,6.029,CST-1368DR,4477,5118,12156,01.002,551
2022-11-28T12:33:50,42.805,6.029,CST-1368DR,4477,5117,12154,01.003,551
2022-11-28T12:36:51,42.805,6.029,CST-1368DR,4477,5117,12154,01.003,551
2022-11-28T12:39:53,42.805,6.029,CST-1368DR,4477,5117,12156,01.002,551
2022-11-28T12:42:55,42.805,6.029,CST-1368DR,4477,5117,12155,01.002,551
2022-11-28T12:45:56,42.805,6.029,CST-1368DR,4477,5116,12151,01.004,551
2022-11-28T12:48:58,42.805,6.029,CST-1368DR,4477,5114,12148,01.005,551
2022-11-28T12:51:59,42.805,6.029,CST-1368DR,4477,5116,12153,01.003,551
2022-11-28T12:55:01,42.805,6.029,CST-1368DR,4477,5119,12159,01.001,551
2022-11-28T12:58:02,42.805,6.029,CST-1368DR,4477,5117,12155,01.002,551
2022-11-28T13:01:04,42.805,6.029,CST-1368DR,4477,5108,12134,01.009,551
2022-11-28T13:04:06,42.805,6.029,CST-1368DR,4477,5118,12157,01.002,551
2022-11-28T13:07:07,42.805,6.029,CST-1368DR,4477,5117,12154,01.003,551
2022-11-28T13:10:09,42.805,6.029,CST-1368DR,4477,5118,12156,01.002,551
2022-11-28T13:13:10,42.805,6.029,CST-1368DR,4477,5116,12153,01.003,551
2022-11-28T13:16:12,42.805,6.029,CST-1368DR,4477,5116,12153,01.003,551
2022-11-28T13:19:14,42.805,6.029,CST-1368DR,4477,5117,12154,01.003,551
2022-11-28T13:22:15,42.805,6.029,CST-1368DR,4477,5118,12156,01.002,551
2022-11-28T13:25:17,42.805,6.029,CST-1368DR,4477,5119,12159,01.001,551
2022-11-28T13:28:18,42.805,6.029,CST-1368DR,4477,5117,12156,01.002,551
2022-11-28T13:31:20,42.805,6.029,CST-1368DR,4477,5117,12154,01.003,551
2022-11-28T13:34:21,42.805,6.029,CST-1368DR,4477,5116,12153,01.003,551
2022-11-28T13:37:23,42.805,6.029,CST-1368DR,4477,5114,12148,01.005,551
2022-11-28T13:40:25,42.805,6.029,CST-1368DR,4477,5115,12151,01.004,551
2022-11-28T13:43:26,42.805,6.029,CST-1368DR,4477,5117,12154,01.003,551
2022-11-28T13:46:28,42.805,6.029,CST-1368DR,4477,5115,12150,01.004,551
2022-11-28T13:49:29,42.805,6.029,CST-1368DR,4477,5116,12153,01.003,551
2022-11-28T13:52:31,42.805,6.029,CST-1368DR,4477,5116,12153,01.003,551
2022-11-28T13:55:33,42.805,6.029,CST-1368DR,4477,5117,12154,01.003,551
2022-11-28T13:58:34,42.805,6.029,CST-1368DR,4477,5114,12148,01.005,551
2022-11-28T14:01:36,42.805,6.029,CST-1368DR,4477,5114,12148,01.005,551
2022-11-28T14:04:37,42.805,6.029,CST-1368DR,4477,5117,12154,01.003,551
2022-11-28T14:07:39,42.805,6.029,CST-1368DR,4477,5115,12150,01.004,551
2022-11-28T14:10:40,42.805,6.029,CST-1368DR,4477,5116,12153,01.003,551
2022-11-28T14:13:42,42.805,6.029,CST-1368DR,4477,5114,12148,01.005,551
2022-11-28T14:16:44,42.805,6.029,CST-1368DR,4477,5117,12154,01.003,551
2022-11-28T14:19:45,42.805,6.029,CST-1368DR,4477,5116,12153,01.003,551
2022-11-28T14:22:47,42.805,6.029,CST-1368DR,4477,5118,12157,01.002,551
2022-11-28T14:25:48,42.805,6.029,CST-1368DR,4477,5117,12154,01.003,551
2022-11-28T14:28:50,42.805,6.029,CST-1368DR,4477,5114,12147,01.005,551
2022-11-28T14:31:51,42.805,6.029,CST-1368DR,4477,5117,12156,01.002,551
2022-11-28T14:34:53,42.805,6.029,CST-1368DR,4477,5113,12145,01.006,551
2022-11-28T14:37:55,42.805,6.029,CST-1368DR,4477,5114,12147,01.005,551
2022-11-28T14:40:56,42.805,6.029,CST-1368DR,4477,5114,12147,01.005,551
2022-11-28T14:43:58,42.805,6.029,CST-1368DR,4477,5114,12148,01.005,551
2022-11-28T14:46:59,42.805,6.029,CST-1368DR,4477,5114,12148,01.005,551
2022-11-28T14:50:01,42.805,6.029,CST-1368DR,4477,5115,12149,01.004,551
2022-11-28T14:53:03,42.805,6.029,CST-1368DR,4477,5114,12147,01.005,551
2022-11-28T14:56:04,42.805,6.029,CST-1368DR,4477,5114,12147,01.005,551
2022-11-28T14:59:06,42.805,6.029,CST-1368DR,4477,5115,12151,01.004,551
2022-11-28T15:02:07,42.805,6.029,CST-1368DR,4477,5117,12154,01.003,551
2022-11-28T15:05:09,42.805,6.029,CST-1368DR,4477,5113,12145,01.006,551
2022-11-28T15:08:10,42.805,6.029,CST-1368DR,4477,5114,12147,01.005,551
2022-11-28T15:11:12,42.805,6.029,CST-1368DR,4477,5115,12150,01.004,551
2022-11-28T15:14:14,42.805,6.029,CST-1368DR,4477,5115,12151,01.004,551
2022-11-28T15:17:15,42.805,6.029,CST-1368DR,4477,5113,12145,01.006,551
2022-11-28T15:20:17,42.805,6.029,CST-1368DR,4477,5116,12151,01.004,551
2022-11-28T15:23:18,42.805,6.029,CST-1368DR,4477,5114,12148,01.005,551
2022-11-28T15:26:20,42.805,6.029,CST-1368DR,4477,5116,12151,01.004,551
2022-11-28T15:29:21,42.805,6.029,CST-1368DR,4477,5115,12150,01.004,551
2022-11-28T15:32:23,42.805,6.029,CST-1368DR,4477,5114,12148,01.005,551
2022-11-28T15:35:25,42.805,6.029,CST-1368DR,4477,5114,12147,01.005,551
2022-11-28T15:38:26,42.805,6.029,CST-1368DR,4477,5113,12146,01.005,551
2022-11-28T15:41:28,42.805,6.029,CST-1368DR,4477,5115,12149,01.004,551
2022-11-28T15:44:29,42.805,6.029,CST-1368DR,4477,5113,12146,01.005,551
2022-11-28T15:47:31,42.805,6.029,CST-1368DR,4477,5113,12145,01.006,551
2022-11-28T15:50:33,42.805,6.029,CST-1368DR,4477,5114,12147,01.005,551
2022-11-28T15:53:34,42.805,6.029,CST-1368DR,4477,5112,12143,01.006,551
2022-11-28T15:56:36,42.805,6.029,CST-1368DR,4477,5114,12148,01.005,551
2022-11-28T15:59:37,42.805,6.029,CST-1368DR,4477,5114,12148,01.005,551
2022-11-28T16:02:39,42.805,6.029,CST-1368DR,4477,5116,12151,01.004,551
2022-11-28T16:05:40,42.805,6.029,CST-1368DR,4477,5114,12148,01.005,551
2022-11-28T16:08:42,42.805,6.029,CST-1368DR,4477,5114,12147,01.005,551
2022-11-28T16:11:44,42.805,6.029,CST-1368DR,4477,5113,12146,01.005,551
2022-11-28T16:14:45,42.805,6.029,CST-1368DR,4477,5115,12150,01.004,551
2022-11-28T16:17:47,42.805,6.029,CST-1368DR,4477,5114,12148,01.005,551
2022-11-28T16:20:48,42.805,6.029,CST-1368DR,4477,5114,12147,01.005,551
2022-11-28T16:23:50,42.805,6.029,CST-1368DR,4477,5112,12142,01.007,551
2022-11-28T16:26:51,42.805,6.029,CST-1368DR,4477,5112,12142,01.007,551
2022-11-28T16:29:53,42.805,6.029,CST-1368DR,4477,5112,12144,01.006,551
2022-11-28T16:32:55,42.805,6.029,CST-1368DR,4477,5112,12144,01.006,551
2022-11-28T16:35:56,42.805,6.029,CST-1368DR,4477,5113,12146,01.005,551
2022-11-28T16:38:58,42.805,6.029,CST-1368DR,4477,5113,12145,01.006,551